Wind_Speed
16 17 17 17 17 17 16 15 14 13 12 10 10 9 10 9 9 8 8 8 8 8 8 8 8 9 8 8 8 9 9 9 9 10 11 12 13 14 14 15 15 16 16
18 18 19 19 19 19 18 18 16 15 14 13 12 12 11 11 11 10 9 9 9 9 9 9 10 10 10 10 11 11 11 11 11 11 11 12 13 14 15 15 16 17 17
18 19 20 20 20 20 20 19 19 18 17 16 15 14 13 13 13 12 11 11 11 10 10 10 11 11 12 12 13 13 13 13 14 14 14 14 14 14 15 16 17 17 18
19 19 20 20 21 21 21 21 21 20 20 19 18 17 16 15 15 14 13 13 12 12 12 11 12 12 13 13 14 15 15 15 16 16 16 16 16 16 16 16 18 18 19
21 21 21 21 21 21 21 21 22 22 22 21 21 20 18 16 16 16 15 14 14 13 13 13 13 13 14 14 15 16 16 17 18 18 18 18 18 18 18 18 18 19 20
24 23 22 22 22 22 22 22 22 23 23 23 23 22 20 19 18 17 17 17 16 15 14 15 15 15 15 16 16 17 18 19 19 20 20 20 20 20 20 21 20 21 21
26 25 24 24 23 22 23 24 24 24 24 25 25 24 23 22 20 19 18 19 18 17 16 17 17 18 18 18 18 19 19 20 21 21 22 22 22 22 22 22 22 22 22
27 25 26 25 24 23 24 25 25 25 26 26 26 26 25 24 24 22 20 20 20 20 19 19 19 20 20 20 20 21 21 22 22 22 23 23 23 23 23 23 23 24 24
29 28 27 27 26 26 25 24 25 26 27 27 28 28 28 26 26 25 24 22 21 22 22 22 22 22 23 22 22 22 23 23 23 24 24 24 24 25 25 25 24 25 25
32 30 28 28 28 28 26 26 26 26 28 28 29 29 30 29 27 26 26 25 24 23 23 23 23 24 24 24 24 23 24 24 25 25 25 25 25 25 26 26 26 25 25
33 32 31 29 29 29 27 27 27 26 27 28 29 30 31 30 29 28 27 27 26 25 24 23 23 24 25 25 25 24 25 25 26 26 26 26 26 26 26 26 26 26 26
34 33 32 31 30 29 28 28 29 29 28 28 28 29 31 30 29 29 28 28 26 25 25 23 23 23 24 25 25 24 24 25 26 26 26 27 27 27 27 27 27 26 26
33 32 32 31 31 30 30 29 28 29 29 28 28 29 30 30 30 29 28 28 26 25 24 24 23 23 23 24 24 24 25 25 25 26 26 27 27 28 28 27 27 27 27
32 32 32 31 30 30 30 30 29 28 28 28 28 28 28 28 28 28 28 27 26 25 24 24 23 22 23 23 23 24 25 25 25 26 27 27 27 28 28 28 28 27 27
31 30 31 30 30 30 29 29 28 28 28 28 27 28 27 27 27 27 27 26 24 23 24 24 23 22 22 22 23 24 25 25 25 26 27 27 28 28 28 29 28 28 28
28 27 27 28 27 27 27 27 27 27 26 26 26 26 26 26 27 26 25 24 22 23 24 24 23 23 22 23 23 24 25 25 25 26 27 27 28 28 28 29 29 28 28
23 24 24 24 23 22 22 22 23 23 23 24 25 25 24 23 23 22 22 22 23 23 24 24 23 23 23 23 24 24 24 25 26 25 26 27 27 28 28 29 29 29 28
18 19 18 18 18 18 18 18 17 18 19 20 21 21 21 21 21 21 21 22 23 23 24 24 24 24 23 23 23 23 24 25 25 25 25 25 26 27 28 29 28 28 29
10 11 13 14 15 16 16 16 16 17 17 18 19 20 20 20 21 20 21 21 22 23 23 23 23 23 23 23 24 24 24 24 24 24 24 24 25 25 26 28 28 28 28
7 9 11 12 13 14 14 14 14 15 16 17 18 18 18 19 19 20 20 21 21 21 22 22 22 22 23 23 24 24 24 24 25 24 24 24 24 25 26 27 28 29 28
6 8 9 10 11 11 12 13 14 15 16 16 17 18 18 19 19 19 20 21 21 21 21 22 22 22 23 23 24 24 24 24 24 25 24 24 24 25 26 27 27 28 29
7 8 9 10 12 13 14 15 15 16 17 17 18 19 19 19 19 20 20 21 21 21 21 21 22 22 23 23 23 24 24 24 24 24 23 23 23 24 24 25 26 28 28
7 9 10 11 12 13 15 16 17 17 17 17 18 19 20 20 20 20 21 21 21 22 22 22 22 22 22 23 23 23 23 23 23 23 23 23 23 23 23 23 24 25 26
8 9 10 11 12 14 15 16 17 17 17 18 18 19 19 19 19 20 20 20 20 20 21 21 21 21 21 21 21 21 21 21 21 21 21 21 21 22 22 22 23 23 24
10 10 11 11 12 13 14 15 16 16 17 17 18 18 18 18 18 18 19 19 19 19 19 19 19 19 19 19 19 19 19 19 19 19 20 20 20 20 20 20 20 22 23
11 11 11 12 12 12 12 13 14 15 15 16 16 17 18 18 17 17 17 17 17 17 18 18 18 18 18 17 17 17 17 17 18 18 18 18 19 19 19 20 20 21 22
Wind_Direction
276 276 275 275 275 276 276 276 275 276 276 277 280 281 280 280 276 273 272 270 269 269 269 267 266 264 263 262 263 260 259 255 253 252 250 247 245 243 238 237 238 239 239
273 273 272 271 272 272 272 271 270 270 271 274 276 275 273 272 272 275 275 274 273 271 269 269 267 264 261 259 259 260 260 259 256 253 251 250 249 246 244 243 242 241 241
272 271 270 270 270 272 272 271 270 269 269 270 271 271 271 270 270 273 274 274 275 274 272 272 271 269 265 262 259 259 258 257 256 255 256 255 252 251 248 246 245 243 242
271 269 268 268 267 269 269 269 268 268 268 268 270 269 270 269 268 269 270 273 275 275 275 274 273 271 269 265 262 259 258 257 257 256 256 256 255 254 253 251 248 246 245
272 270 268 267 266 264 265 266 265 265 267 268 270 268 267 266 267 268 269 270 272 275 275 273 272 272 270 268 265 262 259 259 258 257 257 256 256 255 254 254 252 250 250
270 269 267 268 267 264 263 263 264 264 265 266 269 265 264 263 263 267 270 269 271 274 274 273 274 274 271 269 267 264 262 260 259 258 257 256 256 256 255 255 255 254 253
267 266 267 267 267 266 265 265 264 263 264 264 264 262 261 261 260 262 266 269 273 276 275 274 274 273 270 269 269 267 266 264 262 260 259 258 257 257 256 256 255 255 253
266 266 266 267 268 269 268 265 263 264 264 263 260 258 257 259 260 261 261 264 270 273 275 275 274 274 271 270 269 269 268 266 264 262 260 259 259 258 257 257 256 255 255
267 269 267 267 268 268 270 268 264 265 265 263 259 256 254 257 260 261 262 262 265 269 272 273 275 276 273 271 269 269 268 267 265 263 261 260 260 259 258 258 256 255 255
267 267 265 266 266 267 267 267 267 269 266 261 259 255 252 255 257 258 261 263 263 265 267 269 271 275 274 273 271 270 269 268 266 264 261 260 259 259 259 258 257 255 255
268 269 266 266 267 266 265 268 266 268 266 262 257 253 250 251 253 254 258 260 262 263 263 264 267 270 272 273 274 272 270 268 267 265 263 260 259 259 259 258 257 256 255
268 270 270 269 272 269 268 268 266 267 264 261 255 251 249 248 249 251 255 258 259 260 261 262 263 265 268 270 273 274 272 268 266 265 264 261 260 258 258 257 257 256 256
268 270 270 271 271 268 268 266 267 265 261 257 252 249 248 246 246 249 252 253 254 256 259 262 263 264 266 268 271 273 272 269 267 265 265 263 261 259 257 257 257 256 256
268 268 268 269 269 266 266 264 264 261 258 254 251 248 245 245 247 248 249 249 251 254 258 261 262 263 265 268 269 271 272 270 268 266 265 264 262 260 258 258 257 256 255
267 267 265 266 264 265 265 264 261 257 254 253 250 245 244 247 248 248 249 248 251 255 259 260 261 262 265 268 268 271 272 272 268 267 267 264 262 261 259 259 258 256 255
262 264 265 261 260 262 262 262 257 255 253 250 247 248 247 247 246 247 248 248 251 254 257 259 261 263 264 266 267 271 272 272 270 269 268 265 262 260 259 258 258 257 256
262 263 263 262 260 259 258 258 256 252 251 248 247 246 244 245 246 247 247 250 252 254 256 259 261 263 264 266 268 270 272 272 272 271 269 266 263 261 259 257 257 257 257
259 257 256 257 255 254 253 252 247 248 247 247 247 245 244 246 248 248 250 252 253 255 257 259 262 263 264 266 268 269 271 272 272 271 270 267 263 262 261 258 257 257 257
260 257 256 252 249 248 249 247 246 247 246 248 249 248 249 248 248 250 252 254 255 256 258 260 262 263 264 266 268 268 270 271 269 269 269 267 264 263 261 258 257 258 258
263 254 250 249 250 252 250 248 249 250 251 253 252 252 252 250 250 252 254 255 256 257 259 261 263 265 266 267 268 266 268 269 268 269 271 268 265 263 261 258 258 258 258
271 266 261 261 260 258 259 257 257 257 257 256 255 254 253 253 253 254 256 258 259 260 262 263 265 266 267 268 267 266 267 268 267 266 268 268 266 264 261 259 258 258 258
289 282 278 275 270 266 266 264 263 260 260 258 256 255 256 256 255 256 258 260 262 263 264 264 266 267 267 268 268 267 268 268 266 265 266 268 266 265 262 261 260 260 259
308 298 292 285 278 273 270 268 265 263 261 259 256 256 256 256 256 258 261 263 264 264 264 265 266 266 267 268 269 269 269 268 267 267 267 268 265 264 264 261 262 261 259
324 315 306 298 290 281 275 271 267 265 262 261 259 258 257 257 257 260 260 262 264 265 265 266 267 267 268 269 269 269 269 269 268 268 267 267 268 265 264 264 263 261 259
336 326 317 309 300 290 281 274 269 265 263 262 260 258 256 257 257 258 260 262 263 264 266 267 267 268 269 269 269 269 269 270 269 268 270 270 272 271 267 267 266 264 261
349 339 330 322 312 301 291 282 275 270 266 263 260 258 256 256 256 258 261 265 266 265 266 268 267 267 267 267 267 269 270 271 270 272 273 273 273 273 272 271 272 271 268
Height
5901 5901 5901 5901 5900 5900 5900 5899 5899 5899 5899 5899 5899 5898 5898 5898 5897 5897 5897 5897 5897 5897 5897 5897 5897 5897 5897 5898 5898 5898 5898 5899 5899 5899 5900 5901 5901 5902 5903 5904 5906 5907 5908
5898 5897 5897 5897 5897 5896 5897 5896 5896 5896 5896 5896 5896 5896 5896 5896 5895 5895 5895 5895 5895 5895 5895 5895 5895 5895 5895 5895 5895 5896 5896 5897 5897 5897 5898 5898 5899 5900 5901 5902 5903 5904 5905
5895 5894 5893 5892 5892 5892 5892 5892 5892 5892 5893 5893 5893 5893 5893 5893 5893 5893 5892 5892 5892 5892 5892 5892 5892 5892 5892 5892 5892 5893 5893 5894 5894 5895 5895 5896 5896 5897 5897 5898 5899 5900 5901
5890 5890 5889 5888 5888 5887 5887 5887 5888 5888 5888 5889 5890 5890 5890 5890 5889 5889 5889 5889 5889 5889 5890 5889 5889 5889 5889 5889 5889 5889 5890 5890 5891 5891 5892 5892 5893 5893 5894 5895 5896 5897 5898
5884 5884 5884 5883 5883 5883 5883 5883 5884 5884 5884 5884 5885 5885 5886 5886 5886 5885 5885 5886 5886 5886 5886 5886 5886 5886 5886 5886 5886 5886 5886 5886 5887 5888 5888 5888 5889 5890 5890 5891 5892 5893 5894
5877 5877 5877 5878 5877 5877 5878 5878 5879 5879 5879 5879 5879 5880 5881 5882 5882 5882 5881 5882 5882 5883 5883 5883 5883 5883 5882 5882 5883 5883 5882 5882 5883 5883 5884 5884 5885 5885 5886 5887 5888 5889 5889
5870 5870 5870 5871 5871 5871 5871 5872 5872 5873 5873 5874 5874 5874 5875 5876 5878 5878 5878 5877 5877 5878 5878 5879 5879 5878 5878 5878 5878 5879 5879 5879 5879 5879 5879 5880 5880 5881 5881 5882 5883 5884 5885
5864 5864 5864 5864 5865 5865 5865 5865 5866 5866 5867 5867 5868 5868 5869 5871 5872 5873 5874 5874 5873 5873 5874 5874 5874 5874 5874 5874 5874 5874 5874 5874 5874 5874 5874 5875 5875 5876 5876 5877 5878 5879 5879
5855 5856 5857 5857 5857 5858 5858 5858 5859 5859 5860 5861 5861 5862 5863 5864 5866 5867 5868 5869 5869 5869 5869 5869 5869 5869 5868 5869 5869 5869 5869 5869 5869 5869 5869 5869 5870 5871 5871 5871 5872 5873 5874
5847 5847 5848 5848 5849 5850 5850 5851 5851 5852 5852 5853 5854 5855 5857 5858 5859 5860 5862 5862 5863 5864 5864 5864 5864 5863 5863 5863 5863 5864 5864 5864 5864 5864 5864 5864 5864 5865 5865 5866 5866 5867 5868
5839 5839 5839 5840 5841 5841 5842 5843 5843 5844 5845 5846 5846 5848 5849 5851 5852 5854 5855 5856 5857 5857 5858 5859 5859 5858 5858 5857 5857 5858 5858 5858 5858 5858 5858 5858 5858 5859 5859 5860 5861 5861 5862
5831 5830 5830 5831 5832 5833 5834 5835 5835 5836 5837 5838 5839 5840 5842 5844 5846 5847 5849 5849 5850 5851 5852 5853 5853 5853 5853 5852 5851 5851 5852 5851 5852 5852 5852 5852 5852 5853 5853 5854 5855 5855 5856
5822 5822 5823 5823 5823 5823 5825 5826 5827 5828 5829 5830 5831 5832 5834 5836 5838 5840 5842 5842 5844 5845 5846 5846 5847 5847 5847 5847 5846 5846 5846 5846 5845 5846 5846 5846 5846 5846 5847 5848 5848 5849 5849
5814 5815 5815 5815 5815 5816 5817 5819 5819 5820 5821 5822 5824 5825 5826 5829 5831 5833 5835 5836 5837 5838 5839 5840 5841 5841 5841 5841 5840 5840 5840 5840 5839 5839 5839 5840 5840 5840 5841 5841 5842 5842 5843
5806 5807 5807 5808 5808 5809 5810 5810 5811 5813 5814 5815 5817 5818 5820 5822 5824 5826 5828 5829 5831 5832 5833 5834 5835 5835 5835 5835 5834 5834 5834 5833 5833 5833 5833 5833 5833 5833 5834 5835 5835 5836 5836
5798 5799 5799 5800 5801 5801 5802 5803 5803 5805 5806 5808 5810 5811 5813 5815 5817 5819 5821 5822 5824 5826 5827 5827 5828 5829 5829 5829 5828 5828 5827 5827 5826 5826 5826 5826 5826 5827 5827 5828 5828 5829 5830
5791 5792 5793 5793 5794 5795 5795 5796 5797 5799 5800 5802 5803 5805 5807 5809 5811 5813 5814 5816 5818 5820 5820 5821 5821 5822 5822 5822 5822 5822 5821 5821 5820 5820 5819 5819 5819 5820 5820 5821 5822 5822 5823
5786 5786 5787 5788 5788 5789 5790 5791 5792 5793 5795 5796 5798 5799 5801 5803 5805 5807 5808 5810 5812 5813 5814 5814 5815 5815 5816 5816 5816 5816 5815 5814 5814 5813 5813 5813 5813 5813 5813 5814 5815 5815 5816
5782 5782 5783 5784 5784 5785 5786 5786 5788 5789 5790 5791 5793 5794 5796 5797 5799 5801 5802 5804 5805 5806 5807 5808 5808 5809 5809 5809 5809 5809 5809 5808 5808 5807 5806 5806 5806 5806 5806 5807 5808 5808 5809
5780 5780 5780 5780 5781 5781 5782 5783 5784 5785 5786 5787 5788 5789 5790 5792 5793 5795 5796 5798 5799 5800 5800 5801 5801 5802 5802 5802 5802 5802 5802 5802 5802 5801 5800 5800 5799 5799 5799 5800 5801 5801 5802
5778 5778 5778 5778 5778 5778 5778 5779 5780 5780 5781 5782 5783 5784 5785 5786 5788 5789 5790 5791 5792 5793 5794 5794 5795 5795 5795 5796 5796 5796 5796 5795 5795 5795 5794 5793 5793 5792 5792 5793 5793 5794 5794
5777 5776 5776 5775 5775 5775 5775 5775 5775 5776 5777 5778 5779 5779 5780 5781 5782 5783 5785 5786 5786 5787 5788 5788 5788 5789 5789 5789 5789 5789 5789 5789 5789 5789 5788 5787 5786 5786 5785 5785 5786 5786 5787
5775 5774 5773 5772 5772 5771 5771 5771 5771 5772 5772 5773 5773 5774 5774 5776 5777 5778 5779 5780 5780 5781 5782 5782 5782 5783 5783 5783 5783 5783 5783 5783 5782 5782 5782 5781 5780 5780 5779 5779 5779 5779 5780
5773 5772 5771 5769 5768 5767 5767 5766 5766 5767 5767 5768 5768 5769 5770 5770 5771 5772 5773 5774 5775 5775 5776 5776 5777 5777 5777 5777 5777 5777 5777 5777 5776 5776 5776 5775 5775 5774 5774 5773 5773 5773 5773
5772 5770 5768 5766 5765 5763 5762 5761 5761 5762 5762 5763 5763 5764 5764 5765 5766 5767 5768 5769 5770 5770 5770 5771 5771 5771 5771 5772 5772 5772 5772 5772 5771 5771 5770 5770 5769 5769 5768 5768 5768 5767 5767
5771 5769 5766 5764 5762 5760 5758 5757 5757 5757 5757 5758 5758 5759 5760 5761 5762 5762 5763 5764 5764 5765 5766 5766 5766 5766 5767 5767 5767 5767 5767 5767 5766 5766 5766 5765 5765 5764 5764 5763 5762 5762 5761